Simultaneous Nadir Overpasses (SNOs) Predictions

Prediction of SNOs between GOES-14 and AQUA Satellite Orbit:

Table of predicted SNOs for the next 14.0 days since TLE Epoch: 7/17/2020
Index Date Time (GOES-14) GOES-14 Lat,Lon AQUA Lat,Lon Distance(km) Time Diff (sec)
1 07/18/2020 20:20:43 0.28,-104.50 1.01,-101.07 390.35 80
2 07/19/2020 08:39:19 -0.31,-104.29 0.09,-106.22 219.19 80
3 07/21/2020 08:29:48 -0.31,-104.30 -0.55,-103.27 117.35 80
4 07/21/2020 20:48:33 0.33,-104.50 -0.49,-108.47 451.41 80
5 07/23/2020 08:17:37 -0.30,-104.30 -1.18,-100.32 453.97 80
6 07/23/2020 20:36:21 0.33,-104.51 0.08,-105.51 114.60 80
7 07/25/2020 20:26:50 0.33,-104.51 0.72,-102.55 222.36 80
8 07/26/2020 08:45:26 -0.35,-104.32 0.37,-107.71 385.93 80
9 07/28/2020 08:35:55 -0.35,-104.32 -0.27,-104.76 49.20 80
10 07/30/2020 08:23:44 -0.35,-104.33 -0.92,-101.81 287.35 80
11 07/30/2020 20:42:28 0.38,-104.52 -0.18,-107.00 282.54 80
